Regional Weather Roundup
Issued by NWS Charleston, WV

Home | Current Version | Previous Version | Text Only | Print | Product List | Glossary On
Versions: 1 2 3 4 5 6 7 8 9 10 11 12 13 14 15 16 17 18 19 20 21 22 23 24 25 26 27
000
ASUS41 KRLX 062310
RWRRLX
West Virginia Regional Weather Roundup
National Weather Service Charleston WV
700 PM EDT FRI MAY 06 2016

Note: "fair" indicates few or no clouds below 12,000 feet with no
significant weather and/or obstructions to visibility.

WVZ003-070000-
Northern Panhandle of West Virginia

CITY           SKY/WX    TMP DP  RH WIND       PRES   REMARKS
WHEELING       CLOUDY    64  32  30 N14G24    29.77R
$$

WVZ009-070000-
Northwest West Virginia

CITY           SKY/WX    TMP DP  RH WIND       PRES   REMARKS
PARKERSBURG      N/A     66  36  32 NW16G24   29.82R
$$

WVZ006-070000-
Western West Virginia

CITY           SKY/WX    TMP DP  RH WIND       PRES   REMARKS
HUNTINGTON       N/A     69  39  33 NW10      29.83S
$$

WVZ015-070000-
West Central West Virginia

CITY           SKY/WX    TMP DP  RH WIND       PRES   REMARKS
CHARLESTON     PTSUNNY   65  38  36 NW13G20   29.80S
$$

WVZ022-031-070000-
North Central West Virginia

CITY           SKY/WX    TMP DP  RH WIND       PRES   REMARKS
CLARKSBURG     CLOUDY    60  36  40 N20G33    29.76R
MORGANTOWN     LGT RAIN  55  42  61 NE13G24   29.78R
$$

WVZ025-035-042-045-070000-
Southern West Virginia

CITY           SKY/WX    TMP DP  RH WIND       PRES   REMARKS
BECKLEY        CLOUDY    57  38  48 NW16G24   29.82R
LOGAN          NOT AVBL
BLUEFIELD        N/A     54  41  61 NW10G20   29.84S
LEWISBURG      PTSUNNY   56  38  49 NW6       29.79S
$$

WVZ047-070000-
Northern Mountains of West Virginia

CITY           SKY/WX    TMP DP  RH WIND       PRES   REMARKS
ELKINS         LGT RAIN  52  46  80 SE5       29.78S
$$

WVZ052-070000-
Eastern Panhandle of West Virginia

CITY           SKY/WX    TMP DP  RH WIND       PRES   REMARKS
MARTINSBURG    LGT RAIN  51  48  89 NW14      29.70S
PETERSBURG     RAIN      52  50  92 CALM      29.78R
$$




USA.gov is the U.S. government's official web portal to all federal, state and local government web resources and services.